Wind_Speed
21 15 14 11 13 12 8 8 9 9 12 11 9 8 8 7 8 10 8 9 9 10
22 21 18 17 15 12 6 12 13 13 12 10 9 8 10 9 11 6 9 9 10 12
20 22 19 10 14 12 8 9 13 10 7 9 10 11 11 11 13 12 10 9 14 8
19 18 17 15 13 17 13 10 8 10 10 12 12 13 14 14 10 16 14 15 15 14
19 21 19 17 16 16 16 14 15 12 15 15 15 16 17 18 14 18 17 17 16 16
13 12 11 13 14 13 15 16 16 17 17 17 18 18 20 21 22 21 20 16 17 16
16 16 17 14 12 11 14 14 14 17 18 21 21 22 23 25 27 23 7 13 18 12
10 12 10 11 10 10 13 13 16 18 19 22 23 25 27 27 24 17 28 41 27 26
8 7 8 9 9 11 14 16 17 19 20 22 23 25 29 30 17 26 13 8 9 21
11 11 11 10 9 10 10 11 15 18 18 21 23 26 29 28 20 19 22 20 26 28
9 9 7 5 4 3 4 6 8 10 11 14 16 18 19 19 19 32 35 31 25 30
11 10 8 5 3 2 4 7 10 14 17 15 14 13 14 13 14 31 40 33 24 23
10 8 6 4 2 2 5 9 9 14 15 15 17 15 13 12 12 18 25 25 30 27
6 4 3 2 2 4 8 11 16 17 20 20 19 19 20 16 14 15 17 20 19 23
Wind_Direction
214 217 219 221 225 230 260 173 143 212 188 171 187 198 217 218 232 235 237 243 254 253
206 208 211 217 216 246 221 150 168 203 195 168 188 212 216 225 235 220 227 232 246 248
205 210 217 218 195 218 246 209 170 178 178 200 204 214 220 226 222 222 227 235 236 232
202 207 219 221 217 224 234 226 223 218 210 215 215 220 221 229 249 218 222 221 209 231
201 208 206 215 222 224 230 238 236 230 228 230 226 224 228 230 230 223 223 229 228 237
201 204 225 204 225 230 229 229 234 234 232 235 235 234 230 231 232 233 229 228 237 237
199 209 207 223 229 239 233 234 237 239 240 237 237 239 237 234 234 234 281 7 355 299
179 192 201 219 230 241 242 243 246 245 244 243 239 238 239 237 236 120 80 44 15 320
184 187 199 217 230 243 251 255 255 253 252 251 246 250 249 242 199 152 151 319 359 327
205 214 227 242 248 255 262 268 267 268 270 267 264 263 264 265 196 173 242 221 226 246
181 183 182 182 197 233 270 281 286 285 287 288 289 292 285 280 220 215 231 228 248 240
174 173 176 181 178 249 289 288 288 289 286 280 284 289 303 290 244 221 226 239 237 255
166 173 173 174 191 287 310 310 318 309 311 294 291 287 289 276 272 244 244 249 256 253
153 154 181 225 299 311 303 296 298 299 302 292 285 272 266 260 250 247 248 254 254 263
Height
817 819 821 822 823 822 820 827 836 841 835 829 834 838 840 842 843 843 843 843 842 842
815 817 819 821 822 820 823 830 824 835 839 827 832 836 839 840 841 841 842 842 842 842
813 816 818 819 820 820 820 825 831 833 826 827 832 835 837 838 838 839 840 841 840 841
810 813 816 817 818 819 820 820 820 821 824 828 830 832 834 834 836 836 837 837 836 836
807 810 812 815 817 818 819 820 821 822 824 827 828 829 830 831 833 832 832 834 834 834
805 808 811 812 814 816 817 818 819 820 822 824 824 825 826 826 826 827 829 832 834 834
802 805 807 810 811 813 813 814 816 816 818 819 820 821 820 820 820 823 834 834 833 835
801 803 805 808 809 810 811 811 812 812 813 813 814 813 812 813 816 823 827 831 831 834
801 803 804 806 807 808 808 808 809 809 809 809 809 806 806 805 808 811 808 809 819 816
798 800 802 803 805 805 805 806 805 805 804 803 803 801 799 797 798 804 809 799 799 798
796 798 800 802 802 802 802 802 802 802 801 799 797 795 795 795 798 794 794 795 793 796
795 797 798 799 799 800 800 800 800 798 796 795 793 793 792 792 792 793 793 790 790 794
794 797 798 799 799 799 799 798 797 796 794 792 790 788 788 788 788 788 788 789 789 792
797 798 799 800 799 798 797 796 794 792 790 788 785 783 782 782 781 781 782 784 786 785